BLY23W EGHQ-EGSS

Flight info

Callsign BLY23W
Flight time 0h 52m
Altitude 37000
Route DAWLY N17 TELTU
Aircraft A319/M-SDE3FGHIRWY/LB1

Departure

Time 2026-04-21 19:18
Airport Cornwall Airport Newquay (EGHQ)

Arrival

Time 2026-04-21 20:11
Airport London Stansted Airport (EGSS)
Time Latitude Longitude Altitude Speed Heading
2026-04-21 18:55 50.44621 -5.00307 329 ft 0 kts 78°
2026-04-21 19:13 50.44621 -5.00308 329 ft 1 kts 78°
2026-04-21 19:13 50.44618 -5.00329 325 ft 3 kts 59°
2026-04-21 19:13 50.44607 -5.00347 325 ft 3 kts
2026-04-21 19:14 50.44590 -5.00343 328 ft 3 kts 326°
2026-04-21 19:14 50.44576 -5.00323 325 ft 2 kts 304°
2026-04-21 19:14 50.44572 -5.00315 325 ft 0 kts 299°
2026-04-21 19:16 50.44576 -5.00326 325 ft 3 kts 299°
2026-04-21 19:16 50.44595 -5.00378 326 ft 9 kts 300°
2026-04-21 19:16 50.44642 -5.00500 325 ft 15 kts 302°
2026-04-21 19:16 50.44701 -5.00655 321 ft 18 kts 300°
2026-04-21 19:17 50.44800 -5.01057 312 ft 21 kts 250°
2026-04-21 19:17 50.44710 -5.01171 311 ft 8 kts 198°
2026-04-21 19:17 50.44676 -5.01132 311 ft 6 kts 118°
2026-04-21 19:18 50.44637 -5.01026 313 ft 34 kts 120°
2026-04-21 19:18 50.44381 -5.00343 330 ft 108 kts 121°
2026-04-21 19:18 50.43912 -4.99096 535 ft 143 kts 120°
2026-04-21 19:18 50.43397 -4.97772 1310 ft 140 kts 117°
2026-04-21 19:19 50.42912 -4.96463 2132 ft 138 kts 113°
2026-04-21 19:19 50.42783 -4.94916 2623 ft 157 kts 84°
2026-04-21 19:19 50.42988 -4.93100 3004 ft 182 kts 82°
2026-04-21 19:19 50.43221 -4.90980 3545 ft 207 kts 83°
2026-04-21 19:20 50.43472 -4.88662 4328 ft 221 kts 82°
2026-04-21 19:20 50.43732 -4.86232 5242 ft 230 kts 83°
2026-04-21 19:20 50.44003 -4.83692 6084 ft 242 kts 82°
2026-04-21 19:20 50.44284 -4.81019 6907 ft 253 kts 82°
2026-04-21 19:21 50.44573 -4.78268 7810 ft 258 kts 82°
2026-04-21 19:21 50.44867 -4.75461 8728 ft 264 kts 82°
2026-04-21 19:21 50.45166 -4.72588 9645 ft 270 kts 82°
2026-04-21 19:21 50.45468 -4.69652 10484 ft 278 kts 82°
2026-04-21 19:22 50.45786 -4.66533 10850 ft 302 kts 82°
2026-04-21 19:22 50.46126 -4.63160 11200 ft 323 kts 81°
2026-04-21 19:22 50.46487 -4.59604 11804 ft 335 kts 81°
2026-04-21 19:22 50.46857 -4.55967 12551 ft 341 kts 81°
2026-04-21 19:23 50.47234 -4.52244 13261 ft 349 kts 81°
2026-04-21 19:23 50.47617 -4.48450 13983 ft 355 kts 82°
2026-04-21 19:23 50.48008 -4.44584 14618 ft 362 kts 81°
2026-04-21 19:23 50.48404 -4.40661 15265 ft 367 kts 81°
2026-04-21 19:24 50.48803 -4.36671 15879 ft 374 kts 81°
2026-04-21 19:24 50.49213 -4.32554 16535 ft 379 kts 81°
2026-04-21 19:24 50.49621 -4.28437 17177 ft 384 kts 81°
2026-04-21 19:24 50.50035 -4.24252 17767 ft 391 kts 80°
2026-04-21 19:25 50.50452 -4.20010 18453 ft 395 kts 80°
2026-04-21 19:25 50.50871 -4.15712 18951 ft 402 kts 79°
2026-04-21 19:25 50.51296 -4.11345 19497 ft 406 kts 80°
2026-04-21 19:25 50.51725 -4.06933 20113 ft 410 kts 79°
2026-04-21 19:26 50.52158 -4.02479 20667 ft 415 kts 79°
2026-04-21 19:26 50.52594 -3.97980 21279 ft 418 kts 80°
2026-04-21 19:26 50.53031 -3.93441 21804 ft 423 kts 80°
2026-04-21 19:26 50.53470 -3.88858 22411 ft 425 kts 80°
2026-04-21 19:27 50.53910 -3.84236 22939 ft 430 kts 79°
2026-04-21 19:27 50.54350 -3.79559 23461 ft 434 kts 80°
2026-04-21 19:27 50.54790 -3.74846 23960 ft 437 kts 80°
2026-04-21 19:27 50.55234 -3.70101 24385 ft 441 kts 79°
2026-04-21 19:28 50.55682 -3.65314 24818 ft 444 kts 79°
2026-04-21 19:28 50.56130 -3.60497 25237 ft 447 kts 80°
2026-04-21 19:28 50.56578 -3.55636 25650 ft 450 kts 80°
2026-04-21 19:28 50.57025 -3.50743 26069 ft 454 kts 80°
2026-04-21 19:29 50.57476 -3.45814 26473 ft 457 kts 79°
2026-04-21 19:29 50.57979 -3.40862 26878 ft 460 kts 78°
2026-04-21 19:29 50.58549 -3.35889 27279 ft 463 kts 77°
2026-04-21 19:29 50.59160 -3.30901 27679 ft 466 kts 77°
2026-04-21 19:30 50.59788 -3.25878 28067 ft 469 kts 77°
2026-04-21 19:30 50.60409 -3.20833 28473 ft 472 kts 77°
2026-04-21 19:30 50.61020 -3.15730 28884 ft 475 kts 77°
2026-04-21 19:30 50.61614 -3.10609 29256 ft 478 kts 77°
2026-04-21 19:31 50.62198 -3.05444 29623 ft 481 kts 78°
2026-04-21 19:31 50.62779 -3.00242 29981 ft 483 kts 78°
2026-04-21 19:31 50.63364 -2.95011 30329 ft 486 kts 78°
2026-04-21 19:31 50.63954 -2.89752 30625 ft 489 kts 78°
2026-04-21 19:32 50.64546 -2.84472 30927 ft 491 kts 78°
2026-04-21 19:32 50.65140 -2.79168 31178 ft 491 kts 77°
2026-04-21 19:32 50.66305 -2.68681 31224 ft 477 kts 77°
2026-04-21 19:33 50.67434 -2.58422 31225 ft 474 kts 77°
2026-04-21 19:33 50.68058 -2.48067 31227 ft 478 kts 91°
2026-04-21 19:34 50.67621 -2.37600 31234 ft 478 kts 92°
2026-04-21 19:34 50.67172 -2.27135 31235 ft 479 kts 92°
2026-04-21 19:35 50.66488 -2.11430 31227 ft 479 kts 92°
2026-04-21 19:36 50.66105 -2.00958 31227 ft 477 kts 87°
2026-04-21 19:36 50.66242 -1.90502 31228 ft 477 kts 86°
2026-04-21 19:37 50.66367 -1.80034 31253 ft 478 kts 86°
2026-04-21 19:37 50.66477 -1.69566 31244 ft 478 kts 86°
2026-04-21 19:38 50.66583 -1.58902 31245 ft 492 kts 85°
2026-04-21 19:38 50.67477 -1.50110 31245 ft 487 kts 70°
2026-04-21 19:39 50.69407 -1.39873 31277 ft 487 kts 69°
2026-04-21 19:39 50.71315 -1.29548 31265 ft 487 kts 69°
2026-04-21 19:40 50.73186 -1.19283 31262 ft 487 kts 69°
2026-04-21 19:40 50.75056 -1.09012 31269 ft 487 kts 69°
2026-04-21 19:41 50.76927 -0.98750 31265 ft 487 kts 69°
2026-04-21 19:41 50.78785 -0.88465 31288 ft 487 kts 69°
2026-04-21 19:42 50.81204 -0.78636 31172 ft 469 kts 50°
2026-04-21 19:42 50.83277 -0.74828 29853 ft 452 kts 33°
2026-04-21 19:42 50.85922 -0.72276 28142 ft 441 kts 15°
2026-04-21 19:42 50.88764 -0.70633 26910 ft 432 kts 14°
2026-04-21 19:43 50.91548 -0.68937 25789 ft 425 kts 15°
2026-04-21 19:43 50.94261 -0.67184 24734 ft 418 kts 16°
2026-04-21 19:43 50.96916 -0.65417 23707 ft 410 kts 17°
2026-04-21 19:43 50.99526 -0.63669 22521 ft 404 kts 18°
2026-04-21 19:44 51.02106 -0.61953 21397 ft 399 kts 19°
2026-04-21 19:44 51.04694 -0.60250 20310 ft 395 kts 19°
2026-04-21 19:44 51.07227 -0.58600 19309 ft 392 kts 20°
2026-04-21 19:44 51.09735 -0.56977 18365 ft 388 kts 21°
2026-04-21 19:45 51.12220 -0.55369 17440 ft 381 kts 21°
2026-04-21 19:45 51.14654 -0.53789 16450 ft 376 kts 22°
2026-04-21 19:45 51.17059 -0.52225 15660 ft 371 kts 23°
2026-04-21 19:45 51.19423 -0.50683 15328 ft 362 kts 23°
2026-04-21 19:46 51.21714 -0.49186 15080 ft 352 kts 23°
2026-04-21 19:46 51.23963 -0.47715 14834 ft 347 kts 24°
2026-04-21 19:46 51.26194 -0.46258 14591 ft 347 kts 24°
2026-04-21 19:46 51.28452 -0.44778 14345 ft 344 kts 24°
2026-04-21 19:47 51.30664 -0.43323 14105 ft 344 kts 24°
2026-04-21 19:47 51.32877 -0.41864 13858 ft 344 kts 24°
2026-04-21 19:47 51.35083 -0.40410 13577 ft 342 kts 24°
2026-04-21 19:47 51.37275 -0.38967 13310 ft 342 kts 25°
2026-04-21 19:48 51.39477 -0.37519 13042 ft 340 kts 24°
2026-04-21 19:48 51.41662 -0.36080 12787 ft 339 kts 24°
2026-04-21 19:48 51.43832 -0.34638 12533 ft 338 kts 25°
2026-04-21 19:48 51.45972 -0.33103 12268 ft 336 kts 27°
2026-04-21 19:49 51.48076 -0.31500 12008 ft 335 kts 28°
2026-04-21 19:49 51.50168 -0.29864 11761 ft 333 kts 28°
2026-04-21 19:49 51.52245 -0.28236 11505 ft 332 kts 28°
2026-04-21 19:49 51.54324 -0.26613 11255 ft 331 kts 28°
2026-04-21 19:50 51.55723 -0.25525 11087 ft 330 kts 28°
2026-04-21 19:50 51.58487 -0.23388 10748 ft 329 kts 28°
2026-04-21 19:50 51.60550 -0.21805 10608 ft 328 kts 28°
2026-04-21 19:50 51.62605 -0.20229 10375 ft 323 kts 28°
2026-04-21 19:51 51.64612 -0.18692 10237 ft 308 kts 28°
2026-04-21 19:51 51.66505 -0.17239 10104 ft 295 kts 29°
2026-04-21 19:51 51.68318 -0.15845 9967 ft 283 kts 29°
2026-04-21 19:51 51.70071 -0.14489 9832 ft 277 kts 29°
2026-04-21 19:52 51.71804 -0.13142 9698 ft 276 kts 29°
2026-04-21 19:52 51.73530 -0.11799 9558 ft 275 kts 29°
2026-04-21 19:52 51.75251 -0.10464 9423 ft 275 kts 29°
2026-04-21 19:52 51.76994 -0.09188 9283 ft 275 kts 27°
2026-04-21 19:53 51.78746 -0.07967 9146 ft 274 kts 27°
2026-04-21 19:53 51.80497 -0.06768 9009 ft 273 kts 27°
2026-04-21 19:53 51.82247 -0.05567 8861 ft 273 kts 27°
2026-04-21 19:53 51.83993 -0.04359 8726 ft 273 kts 27°
2026-04-21 19:54 51.85732 -0.03146 8532 ft 272 kts 27°
2026-04-21 19:54 51.87462 -0.01933 8402 ft 271 kts 27°
2026-04-21 19:54 51.89212 -0.00702 8272 ft 270 kts 27°
2026-04-21 19:54 51.90909 0.00492 8169 ft 269 kts 27°
2026-04-21 19:55 51.92625 0.01700 8029 ft 269 kts 27°
2026-04-21 19:55 51.94357 0.02917 7906 ft 264 kts 27°
2026-04-21 19:55 51.96000 0.04070 7778 ft 251 kts 27°
2026-04-21 19:55 51.97564 0.05169 7651 ft 239 kts 28°
2026-04-21 19:56 51.99099 0.06054 7527 ft 238 kts 16°
2026-04-21 19:56 52.00756 0.06287 7420 ft 240 kts
2026-04-21 19:56 52.02444 0.06378 7351 ft 239 kts
2026-04-21 19:56 52.04110 0.06471 7354 ft 239 kts
2026-04-21 19:57 52.05777 0.06564 7272 ft 240 kts
2026-04-21 19:57 52.07440 0.06658 7148 ft 239 kts
2026-04-21 19:57 52.09098 0.06752 7024 ft 238 kts
2026-04-21 19:57 52.10761 0.06477 6905 ft 245 kts 348°
2026-04-21 19:58 52.12298 0.05219 6782 ft 252 kts 326°
2026-04-21 19:58 52.13476 0.03072 6650 ft 258 kts 303°
2026-04-21 19:58 52.14083 0.00315 6520 ft 262 kts 278°
2026-04-21 19:58 52.14005 -0.02621 6345 ft 262 kts 254°
2026-04-21 19:59 52.13257 -0.05266 6171 ft 256 kts 230°
2026-04-21 19:59 52.11994 -0.07227 6056 ft 249 kts 207°
2026-04-21 19:59 52.10433 -0.08285 6006 ft 240 kts 185°
2026-04-21 19:59 52.08800 -0.08389 6007 ft 233 kts 165°
2026-04-21 20:00 52.07243 -0.07768 6008 ft 230 kts 159°
2026-04-21 20:00 52.05698 -0.07091 6010 ft 230 kts 159°
2026-04-21 20:00 52.04148 -0.06422 6020 ft 230 kts 159°
2026-04-21 20:00 52.02600 -0.05759 6012 ft 231 kts 159°
2026-04-21 20:01 52.01057 -0.05053 6009 ft 228 kts 153°
2026-04-21 20:01 51.99728 -0.03729 6005 ft 223 kts 140°
2026-04-21 20:01 51.98454 -0.02291 5707 ft 224 kts 140°
2026-04-21 20:01 51.97165 -0.00844 5305 ft 225 kts 140°
2026-04-21 20:02 51.96297 0.00131 5039 ft 225 kts 140°
2026-04-21 20:02 51.94594 0.02031 4580 ft 223 kts 142°
2026-04-21 20:02 51.93154 0.03005 4284 ft 227 kts 162°
2026-04-21 20:02 51.91562 0.03100 4002 ft 234 kts 183°
2026-04-21 20:03 51.89962 0.02482 3712 ft 236 kts 188°
2026-04-21 20:03 51.88374 0.01818 3415 ft 235 kts 188°
2026-04-21 20:03 51.86788 0.01158 3128 ft 235 kts 188°
2026-04-21 20:03 51.85208 0.00507 3004 ft 234 kts 187°
2026-04-21 20:04 51.83629 -0.00104 3050 ft 233 kts 187°
2026-04-21 20:04 51.82044 -0.00698 3050 ft 234 kts 187°
2026-04-21 20:04 51.80454 -0.01291 3065 ft 235 kts 186°
2026-04-21 20:04 51.78836 -0.01894 3056 ft 235 kts 186°
2026-04-21 20:05 51.77277 -0.01987 3066 ft 222 kts 159°
2026-04-21 20:05 51.75885 -0.00987 2861 ft 214 kts 144°
2026-04-21 20:05 51.74903 0.00643 2538 ft 196 kts 108°
2026-04-21 20:05 51.74885 0.02668 2498 ft 176 kts 68°
2026-04-21 20:06 51.75618 0.04171 2504 ft 168 kts 48°
2026-04-21 20:06 51.76418 0.05399 2515 ft 151 kts 48°
2026-04-21 20:06 51.77147 0.06500 2499 ft 137 kts 49°
2026-04-21 20:06 51.77826 0.07517 2505 ft 130 kts 49°
2026-04-21 20:07 51.78483 0.08502 2508 ft 128 kts 49°
2026-04-21 20:07 51.79136 0.09478 2509 ft 128 kts 49°
2026-04-21 20:07 51.79568 0.10122 2488 ft 127 kts 48°
2026-04-21 20:07 51.80220 0.11096 2389 ft 127 kts 48°
2026-04-21 20:08 51.80867 0.12062 2249 ft 127 kts 49°
2026-04-21 20:08 51.81514 0.13027 2082 ft 126 kts 47°
2026-04-21 20:08 51.82159 0.13990 1913 ft 126 kts 48°
2026-04-21 20:08 51.82804 0.14954 1741 ft 126 kts 47°
2026-04-21 20:09 51.83448 0.15916 1562 ft 126 kts 47°
2026-04-21 20:09 51.84090 0.16876 1387 ft 126 kts 45°
2026-04-21 20:09 51.84734 0.17839 1198 ft 126 kts 45°
2026-04-21 20:09 51.85379 0.18803 1022 ft 126 kts 45°
2026-04-21 20:10 51.86023 0.19766 842 ft 125 kts 44°
2026-04-21 20:10 51.86662 0.20724 673 ft 125 kts 43°
2026-04-21 20:10 51.87304 0.21682 466 ft 125 kts 43°
2026-04-21 20:10 51.87942 0.22642 347 ft 119 kts 43°
2026-04-21 20:11 51.88468 0.23430 336 ft 81 kts 43°
2026-04-21 20:11 51.88754 0.23865 335 ft 32 kts 44°
2026-04-21 20:11 51.88854 0.24106 337 ft 24 kts 64°
2026-04-21 20:11 51.88900 0.24337 343 ft 20 kts 73°
2026-04-21 20:12 51.88918 0.24477 343 ft 8 kts 105°
2026-04-21 20:12 51.88870 0.24573 344 ft 13 kts 133°
2026-04-21 20:12 51.88813 0.24690 345 ft 14 kts 107°
2026-04-21 20:12 51.88867 0.24811 347 ft 15 kts 42°
2026-04-21 20:13 51.88946 0.24929 351 ft 16 kts 43°
2026-04-21 20:13 51.89031 0.25056 349 ft 17 kts 43°
2026-04-21 20:13 51.89120 0.25188 343 ft 18 kts 42°
2026-04-21 20:13 51.89210 0.25324 344 ft 18 kts 44°
2026-04-21 20:14 51.89301 0.25461 344 ft 18 kts 43°
2026-04-21 20:14 51.89396 0.25602 348 ft 19 kts 43°
2026-04-21 20:14 51.89496 0.25751 344 ft 20 kts 43°
2026-04-21 20:14 51.89599 0.25906 343 ft 21 kts 43°
2026-04-21 20:15 51.89702 0.26062 342 ft 14 kts 43°
2026-04-21 20:15 51.89730 0.26175 344 ft 11 kts 129°
2026-04-21 20:15 51.89687 0.26209 345 ft 7 kts 210°
2026-04-21 20:15 51.89663 0.26173 350 ft 3 kts 224°
2026-04-21 20:16 51.89657 0.26164 345 ft 0 kts 223°